TimePST,TemperatureF,Dew PointF,Humidity,Sea Level PressureIn,VisibilityMPH,Wind Direction,Wind SpeedMPH,Gust SpeedMPH,PrecipitationIn,Events,Conditions,WindDirDegrees,DateUTC
12:53 AM,44.1,30.0,58,30.25,10.0,ESE,4.6,-,N/A,,Clear,120,2013-02-25 08:53:00
1:53 AM,43.0,30.0,60,30.25,10.0,Calm,Calm,-,N/A,,Clear,0,2013-02-25 09:53:00
2:53 AM,39.9,30.9,70,30.26,10.0,SSW,3.5,-,N/A,,Clear,200,2013-02-25 10:53:00
3:53 AM,37.0,30.0,76,30.26,10.0,Calm,Calm,-,N/A,,Clear,0,2013-02-25 11:53:00
4:53 AM,35.1,28.9,78,30.25,10.0,South,3.5,-,N/A,,Clear,180,2013-02-25 12:53:00
5:53 AM,36.0,30.0,79,30.24,10.0,SSE,4.6,-,N/A,,Clear,150,2013-02-25 13:53:00
6:53 AM,36.0,30.0,79,30.27,10.0,Calm,Calm,-,N/A,,Clear,0,2013-02-25 14:53:00
7:53 AM,42.1,34.0,73,30.27,10.0,SSE,3.5,-,N/A,,Clear,150,2013-02-25 15:53:00
8:53 AM,48.0,34.0,58,30.27,10.0,South,5.8,-,N/A,,Clear,170,2013-02-25 16:53:00
9:53 AM,52.0,37.0,57,30.25,10.0,SE,4.6,-,N/A,,Clear,140,2013-02-25 17:53:00
10:53 AM,54.0,37.0,53,30.25,10.0,Variable,3.5,-,N/A,,Clear,0,2013-02-25 18:53:00
11:53 AM,57.0,37.9,49,30.24,10.0,Calm,Calm,-,N/A,,Clear,0,2013-02-25 19:53:00
12:53 PM,59.0,39.9,49,30.22,10.0,SW,3.5,-,N/A,,Clear,220,2013-02-25 20:53:00
1:53 PM,61.0,42.1,50,30.22,10.0,Variable,6.9,-,N/A,,Clear,0,2013-02-25 21:53:00
2:53 PM,62.1,39.9,44,30.20,10.0,NNW,6.9,-,N/A,,Clear,330,2013-02-25 22:53:00
3:53 PM,62.1,37.9,41,30.19,10.0,NNW,9.2,-,N/A,,Clear,340,2013-02-25 23:53:00
4:53 PM,61.0,32.0,34,30.17,10.0,NNW,10.4,-,N/A,,Clear,330,2013-02-26 00:53:00
5:53 PM,57.0,30.0,36,30.17,10.0,NNW,8.1,-,N/A,,Clear,340,2013-02-26 01:53:00
6:53 PM,53.1,30.9,43,30.18,10.0,WNW,3.5,-,N/A,,Clear,290,2013-02-26 02:53:00
7:53 PM,52.0,35.1,53,30.18,10.0,NNW,5.8,-,N/A,,Clear,330,2013-02-26 03:53:00
8:53 PM,48.0,33.1,56,30.19,10.0,Calm,Calm,-,N/A,,Clear,0,2013-02-26 04:53:00
9:53 PM,43.0,34.0,71,30.19,10.0,Calm,Calm,-,N/A,,Clear,0,2013-02-26 05:53:00
10:53 PM,44.1,33.1,65,30.19,10.0,Calm,Calm,-,N/A,,Clear,0,2013-02-26 06:53:00
11:53 PM,41.0,30.9,67,30.19,10.0,WNW,3.5,-,N/A,,Clear,290,2013-02-26 07:53:00